Regional Weather Roundup
Issued by NWS Green Bay, WI

Home | Current Version | Previous Version | Text Only | Print | Product List | Glossary On
Versions: 1 2 3 4 5 6 7 8 9 10 11 12 13 14 15 16 17 18 19 20 21 22 23 24 25 26 27 28 29 30 31 32 33 34 35 36 37 38 39 40 41 42 43 44 45 46 47 48 49 50
000
ASUS43 KGRB 290711
RWRGRB

NORTH-CENTRAL AND NORTHEAST WISCONSIN REGIONAL WEATHER ROUNDUP
NATIONAL WEATHER SERVICE GREEN BAY WI
200 AM CDT MON MAY 29 2017

WIZ005-009-010>012-018-019-290800-
NORTH CENTRAL WISCONSIN

CITY           SKY/WX    TMP DP  RH WIND       PRES   REMARKS
IRONWOOD       CLOUDY    52  48  86 SW12      29.62S
MANITOWISH WTR CLOUDY    48  48 100 SW5       29.63S
ARBOR VITAE    CLOUDY    52  49  90 CALM      29.63F
EAGLE RIVER    PTCLDY    48  47  97 SW5       29.64S
LAND O LAKES   MOCLDY    50  49  99 SW5       29.64F
RHINELANDER    PTCLDY    49  47  93 SW5       29.66F
PHILLIPS       PTCLDY    49  48  97 W3        29.65F
ANTIGO         CLEAR     46  46  98 SW6       29.68S
TOMAHAWK       MOCLDY    47  45  93 CALM      29.67S
MERRILL        PTCLDY    47  47 100 SW3       29.67F
$$

WIZ013-073-290800-
NORTHEAST WISCONSIN

CITY           SKY/WX    TMP DP  RH WIND       PRES   REMARKS
IRON MOUNTAIN  PTCLDY    47  45  93 CALM      29.62S FOG
MARINETTE      NOT AVBL
OCONTO         CLEAR     53  47  81 W6        29.66R
$$

WIZ017-030-035>037-045-290800-
CENTRAL WISCONSIN

CITY           SKY/WX    TMP DP  RH WIND       PRES   REMARKS
MEDFORD        CLOUDY    51  47  86 W7        29.68S
WAUSAU         CLOUDY    52  49  89 SW5       29.66F
MOSINEE        LGT RAIN  50  50 100 S5        29.69F
MARSHFIELD     CLOUDY    50  47  89 SW6       29.68F
WISC RAPIDS    MOCLDY    53  50  89 SW7       29.71S
STEVENS POINT  MOCLDY    52  47  83 CALM      29.69F
WAUPACA        PTCLDY    55  47  74 CALM      29.69F
SHAWANO        PTCLDY    56  48  73 W5        29.68S
CLINTONVILLE   PTCLDY    54  45  71 W5        29.68S
WAUTOMA        CLOUDY    53  49  86 CALM      29.71F
$$

WIZ038-039-048-051-290800-
FOX VALLEY

CITY           SKY/WX    TMP DP  RH WIND       PRES   REMARKS
NWS GREEN BAY  CLEAR     56  50  80 W9        29.68S
APPLETON       CLEAR     54  43  66 W6        29.68S
OSHKOSH        CLEAR     56  47  71 SW5       29.69F
FOND DU LAC    CLEAR     54  46  74 SW6       29.71S
$$

WIZ022-050-052-290800-
EAST CENTRAL WISCONSIN

CITY           SKY/WX    TMP DP  RH WIND       PRES   REMARKS
EPHRAIM        FAIR     N/A N/A N/A W6        29.64R
WASHINGTON ISL FOG       47  47 100 CALM      29.64R VSB 1/4
STURGEON BAY   CLEAR     56  49  77 SW6       29.67R
MANITOWOC      CLEAR     57  48  72 SW5       29.70R
SHEBOYGAN      CLEAR     54  50  86 W6        29.71R
$$

LMZ563-521-522-541>543-290800-
LAKESHORE

STATION/POSITION TIME  TEMP    WIND        PRES    VSBY  WAVE
                       AIR SEA DIR/SP/G                  HT/PER
                 (UTC) (F)     (DEG/KT/KT) (MB)    (MI)  (FT/S)
SHEBOYGAN LKSHOR 0700   59     260/  9/ 10 1005.6R
KEWAUNEE LKSHORE 0642          280/  4/  5 1004.6R
NORTHPORT PIER   0640   47     320/  4/  5 1003.7S
N MID LAKE BUOY  0650   41 41  210/  4/  6 1004.7R         1/ 3
SISTER BAY LKSHO 0606   50        CALM       N/A
CHAMBERS ISLAND  0640   54     200/  4/ 10 1003.7R
MENOMINEE LKSHOR 0642          250/  6/  8 1003.2R
$$




USA.gov is the U.S. government's official web portal to all federal, state and local government web resources and services.